Location: Detroit
(42.3310°N, 83.0460°W)
Time: 14:10:17
(UTC-05:00)

S-56A Canister/Altair - All Passes

Search period start: 07 February 2023 00:00
Search period end: 17 February 2023 00:00
Orbit: 639 x 2493 km, 38.8° (Epoch: 07 February)

Date Brightness Start Highest point End Pass type
(mag) Time Alt. Az. Time Alt. Az. Time Alt. Az.
07 Feb - 08:30:02 10° SSE 08:31:27 11° SSE 08:32:50 10° SE daylight
07 Feb - 10:30:09 10° SW 10:34:19 39° SSE 10:38:49 10° E daylight
07 Feb - 12:33:02 10° W 12:37:35 60° S 12:43:28 10° ESE daylight
07 Feb - 14:36:11 10° W 14:41:11 39° SSW 14:48:09 10° SE daylight
07 Feb - 16:40:55 10° WSW 16:45:04 16° SSW 16:50:09 10° S daylight
08 Feb - 09:57:40 10° SW 10:01:48 35° SSE 10:06:01 10° E daylight
08 Feb - 12:00:34 10° WSW 12:05:00 59° S 12:10:26 10° E daylight
08 Feb - 14:03:44 10° W 14:08:30 41° SSW 14:15:00 10° SE daylight
08 Feb - 16:08:09 10° WSW 16:12:15 17° SSW 16:17:20 10° S daylight
09 Feb - 09:25:08 10° SW 09:29:17 31° SSE 09:33:17 10° E daylight
09 Feb - 11:28:04 10° WSW 11:32:26 58° S 11:37:31 10° E daylight
09 Feb - 13:31:17 10° W 13:35:51 43° SSW 13:41:55 10° SE daylight
09 Feb - 15:35:28 10° WSW 15:39:30 18° SSW 15:44:31 10° SSE daylight
10 Feb - 08:52:34 10° SW 08:56:45 28° SSE 09:00:35 10° E daylight
10 Feb - 10:55:31 10° WSW 10:59:54 56° S 11:04:40 10° E daylight
10 Feb - 12:58:49 10° W 13:03:15 45° SSW 13:08:53 10° ESE daylight
10 Feb - 15:02:50 10° WSW 15:06:46 20° SSW 15:11:41 10° SSE daylight
11 Feb - 08:19:56 10° SSW 08:24:12 26° SSE 08:27:56 10° E daylight
11 Feb - 10:22:54 10° WSW 10:27:21 54° S 10:31:54 10° E daylight
11 Feb - 12:26:20 10° W 12:30:40 47° SSW 12:35:57 10° ESE daylight
11 Feb - 14:30:13 10° WSW 14:34:05 21° SSW 14:38:52 10° SSE daylight
12 Feb - 07:47:18 10° SSW 07:51:37 24° SSE 07:55:19 10° ESE daylight
12 Feb - 09:50:14 10° WSW 09:54:50 52° S 09:59:13 10° E daylight
12 Feb - 11:53:48 10° W 11:58:07 49° S 12:03:05 10° ESE daylight
12 Feb - 13:57:38 10° WSW 14:01:26 22° SSW 14:06:05 10° SSE daylight
13 Feb - 07:14:35 10° SSW 07:19:01 22° SSE 07:22:43 10° ESE daylight
13 Feb - 09:17:30 10° WSW 09:22:17 49° S 09:26:36 10° E daylight
13 Feb - 11:21:13 10° W 11:25:33 51° S 11:30:17 10° ESE daylight
13 Feb - 13:25:02 10° WSW 13:28:48 23° SSW 13:33:19 10° SSE daylight
14 Feb - 06:41:50 10° SSW 06:46:23 20° SSE 06:50:07 10° ESE visible
14 Feb - 08:44:40 10° WSW 08:49:44 47° SSE 08:54:02 10° E daylight
14 Feb - 10:48:35 10° W 10:53:01 53° S 10:57:33 10° ESE daylight
14 Feb - 12:52:27 10° W 12:56:13 25° SSW 13:00:37 10° SSE daylight
15 Feb - 06:09:04 10° SSW 06:13:43 19° SSE 06:17:30 10° ESE visible
15 Feb - 08:11:46 10° WSW 08:17:10 45° SSE 08:21:31 10° E daylight
15 Feb - 10:15:52 10° W 10:20:29 55° S 10:24:55 10° ESE daylight
15 Feb - 12:19:49 10° W 12:23:39 28° SSW 12:27:57 10° SE daylight
16 Feb - 05:36:16 10° SSW 05:41:01 18° SSE 05:44:51 10° ESE visible
16 Feb - 07:38:49 10° SW 07:44:34 43° SSE 07:49:02 10° E daylight
16 Feb - 09:43:04 10° W 09:47:56 57° S 09:52:19 10° ESE daylight
16 Feb - 11:47:10 10° W 11:51:06 30° SSW 11:55:19 10° SE daylight
